AE7QG Weather Reports


time (UTC)temp
C
wind
direction
speed
KPH
gust
KPH
rain 1hr
cm
rain 24hr
cm
rain mn
cm
humidity
%
barometer
mb
20240222101539 1 205 0.0 0.0 0.00 0.13 0.00 94 1021.8
20240222100036 1 205 0.0 0.0 0.00 0.13 0.00 94 1021.7
20240222094533 1 205 0.0 0.0 0.00 0.13 0.00 94 1021.7
20240222093032 1 205 0.0 0.0 0.00 0.13 0.00 94 1021.7
20240222091532 1 205 0.0 0.0 0.00 0.13 0.00 94 1021.5
20240222090028 1 205 0.0 0.0 0.00 0.13 0.00 94 1021.4
20240222084532 1 205 0.0 0.0 0.00 0.13 0.00 94 1021.5
20240222083035 1 205 0.0 0.0 0.00 0.13 0.00 94 1021.4
20240222081525 1 205 0.0 0.0 0.00 0.13 0.00 94 1021.4
20240222080025 1 205 0.0 0.0 0.00 0.13 0.00 94 1021.3
20240222074523 1 205 0.0 1.6 0.00 0.13 0.00 94 1021.0
20240222073023 1 205 0.0 0.0 0.00 0.13 0.00 94 1021.0
20240222071520 1 205 0.0 0.0 0.00 0.13 0.00 93 1021.0
20240222070021 1 205 0.0 0.0 0.00 0.13 0.13 93 1021.0
20240222064518 0 205 0.0 0.0 0.00 0.13 0.13 93 1020.9
20240222063017 0 205 0.0 0.0 0.00 0.13 0.13 93 1020.8
20240222061515 0 205 0.0 0.0 0.00 0.13 0.13 93 1020.5
20240222060014 0 205 0.0 0.0 0.00 0.13 0.13 93 1020.5
20240222054513 0 205 0.0 0.0 0.00 0.13 0.13 93 1020.5
20240222053012 0 205 0.0 0.0 0.00 0.13 0.13 93 1020.2
20240222051510 0 205 0.0 0.0 0.00 0.13 0.13 93 1020.1
20240222050029 0 205 0.0 0.0 0.00 0.13 0.13 93 1019.8
20240222044508 1 205 0.0 0.0 0.00 0.13 0.13 93 1019.6
20240222043006 1 205 0.0 0.0 0.00 0.13 0.13 93 1019.4
20240222041504 1 205 0.0 0.0 0.00 0.13 0.13 93 1019.3
20240222040003 1 205 0.0 0.0 0.00 0.13 0.13 93 1019.1
20240222034502 1 205 0.0 1.6 0.00 0.13 0.13 93 1019.0
20240222033000 1 205 1.6 3.2 0.00 0.13 0.13 93 1018.8
20240222031601 1 205 1.6 3.2 0.00 0.13 0.13 93 1018.6
20240222030058 1 205 0.0 0.0 0.00 0.13 0.13 93 1018.4
20240222024557 1 205 0.0 0.0 0.00 0.13 0.13 93 1018.2
20240222023105 1 205 0.0 0.0 0.03 0.13 0.13 93 1018.1
20240222021556 1 204 0.0 0.0 0.03 0.13 0.13 93 1017.8
20240222020052 1 204 0.0 0.0 0.03 0.13 0.13 93 1017.6
20240222014551 1 204 0.0 0.0 0.03 0.13 0.13 92 1017.5
20240222013050 2 205 0.0 0.0 0.00 0.10 0.10 93 1017.2
20240222011552 2 205 0.0 0.0 0.00 0.10 0.10 92 1016.8
20240222010047 3 205 0.0 0.0 0.00 0.10 0.10 93 1016.6
20240222004549 3 205 0.0 0.0 0.00 0.10 0.10 92 1016.4
20240222003044 3 204 0.0 0.0 0.08 0.10 0.10 92 1016.4
20240222001543 4 205 0.0 4.8 0.08 0.10 0.10 92 1016.4
20240222000042 4 204 0.0 6.4 0.08 0.10 0.10 92 1016.2
20240221234558 5 173 0.0 4.8 0.08 0.10 0.10 90 1015.9
20240221233038 6 173 0.0 1.6 0.00 0.03 0.03 84 1015.5
20240221231539 6 173 0.0 4.8 0.00 0.03 0.03 81 1015.0
20240221230036 7 160 1.6 9.7 0.00 0.03 0.03 80 1014.9
20240221224535 7 147 0.0 6.4 0.00 0.03 0.03 81 1014.8
20240221223039 7 126 1.6 6.4 0.00 0.03 0.03 80 1014.6
20240221221531 7 167 0.0 8.0 0.00 0.03 0.03 82 1014.6
20240221220029 6 166 0.0 4.8 0.00 0.03 0.03 84 1014.6
20240221214528 6 141 0.0 6.4 0.00 0.03 0.03 84 1014.6
20240221213025 5 117 0.0 4.8 0.00 0.03 0.03 85 1014.5
20240221211524 5 137 0.0 1.6 0.00 0.03 0.03 86 1014.5
20240221210040 5 140 0.0 3.2 0.00 0.03 0.03 86 1014.6
20240221204522 5 140 0.0 0.0 0.00 0.03 0.03 85 1014.6
20240221203022 5 140 0.0 3.2 0.00 0.03 0.03 85 1014.7
20240221201519 5 140 0.0 1.6 0.00 0.03 0.03 87 1014.8
20240221200017 5 140 0.0 1.6 0.00 0.03 0.03 89 1014.9
20240221194527 3 140 0.0 3.2 0.00 0.03 0.03 90 1015.0
20240221193012 3 94 0.0 4.8 0.00 0.03 0.03 91 1015.0
20240221191509 3 156 0.0 4.8 0.00 0.03 0.03 93 1015.3
20240221190013 2 117 0.0 3.2 0.00 0.05 0.03 94 1015.2
20240221184504 2 117 0.0 0.0 0.00 0.05 0.03 94 1015.2
20240221183003 1 117 0.0 1.6 0.00 0.05 0.03 94 1015.2
20240221181502 1 117 0.0 4.8 0.00 0.05 0.03 94 1015.2
20240221180107 1 117 0.0 1.6 0.00 0.05 0.03 94 1015.2
20240221174601 1 117 0.0 0.0 0.00 0.08 0.03 94 1015.2
20240221173109 1 117 0.0 3.2 0.00 0.08 0.03 94 1015.1
20240221171600 1 117 0.0 3.2 0.00 0.08 0.03 94 1015.1
20240221170103 1 117 0.0 1.6 0.00 0.08 0.03 94 1015.0
20240221164558 1 117 0.0 1.6 0.00 0.08 0.03 94 1015.0
20240221163053 1 117 0.0 0.0 0.00 0.08 0.03 94 1014.9
20240221161558 1 117 0.0 0.0 0.00 0.08 0.03 94 1014.9
20240221160053 0 117 0.0 0.0 0.00 0.08 0.03 94 1014.7
20240221154550 0 117 0.0 0.0 0.00 0.08 0.03 94 1014.7
20240221153049 0 117 0.0 0.0 0.00 0.08 0.03 94 1014.5
20240221151552 0 117 0.0 0.0 0.00 0.08 0.03 94 1014.4
20240221150053 0 117 0.0 0.0 0.00 0.08 0.03 94 1014.2
20240221144550 0 117 0.0 0.0 0.00 0.08 0.03 94 1014.0
20240221143046 0 117 0.0 0.0 0.03 0.08 0.03 94 1013.9
20240221141545 0 117 0.0 0.0 0.03 0.08 0.03 93 1013.7
20240221140044 0 117 0.0 0.0 0.03 0.08 0.03 94 1013.7
20240221134545 0 117 0.0 0.0 0.03 0.08 0.03 94 1013.9
20240221133043 0 117 0.0 0.0 0.00 0.05 0.00 94 1013.7
20240221131543 0 117 0.0 0.0 0.00 0.05 0.00 94 1013.9
20240221130042 0 117 0.0 0.0 0.00 0.05 0.00 94 1014.0
20240221124541 0 117 0.0 0.0 0.00 0.05 0.00 94 1014.0
20240221123041 0 117 0.0 0.0 0.00 0.05 0.00 94 1014.0
20240221121541 0 117 0.0 0.0 0.00 0.05 0.00 94 1013.9
20240221120037 0 117 0.0 0.0 0.00 0.05 0.00 93 1014.0
20240221114537 0 117 0.0 0.0 0.00 0.05 0.00 94 1014.0
20240221113036 0 117 0.0 0.0 0.00 0.05 0.00 93 1014.0
20240221111539 0 117 0.0 0.0 0.00 0.05 0.00 93 1014.0
20240221110035 0 117 0.0 0.0 0.00 0.05 0.00 93 1014.0
20240221104534 0 117 0.0 0.0 0.00 0.05 0.00 93 1014.0